[[{"header":{"parameterUnit":"m.s-1","parameterCategory":1,"la1":30.2991,"la2":30.254,"lo1":-89.0895,"lo2":-89.0444,"dy":0.0017,"dx":0.0017,"nx":28,"ny":28,"refTime":"2023-10-08T21:00:00:Z","depth":0,"parameterNumber":2,"parameterNumberName":"U-component_of_WINDS"},"data":[0,0,0,0,0,0,0,0,0,0,0,0,0,0,0,0,0,0,0,0,0,0,0,0,0,0,0,0,0,0,0,0,0,0,0,0,0,0,0,0,0,0,0,0,0,0,0,0,0,0,0,0,0,0,0,0,0,0,0.7533,0.7533,0,0.7562,0.7563,0.7563,0.7591,0.7592,0.7592,0.7593,0.7621,0.7622,0.7622,0,0,0,0,0,0,0,0,0,0,0,0,0,0.75,0.75,0.7533,0.7533,0.7534,0.7562,0.7563,0.7563,0.7591,0.7592,0.7592,0.7593,0.7621,0.7622,0.7622,0,0,0,0,0,0,0,0,0,0,0,0,0,0.752,0.7501,0.7533,0.7551,0.7553,0.7562,0.7563,0.7563,0.7591,0.7592,0.7592,0.7593,0.7621,0.7621,0.7622,0.7615,0,0,0.7624,0.7624,0,0,0,0,0,0,0,0,0.7519,0.7521,0.7548,0.755,0.7552,0.7574,0.7562,0.758,0.7591,0.7577,0.7593,0.7593,0.7605,0.7607,0.7611,0.7616,0.7617,0.7624,0.7624,0.7625,0.7625,0,0,0,0,0,0,0,0.7518,0.752,0.7544,0.7548,0.7551,0.7558,0.7561,0.7565,0.7587,0.7578,0.758,0.7583,0.7606,0.761,0.7612,0.7618,0.7624,0.7625,0.7625,0.7625,0.7619,0.7618,0,0,0,0,0,0,0.7514,0.7519,0.7543,0.7545,0.7537,0.7558,0.7562,0.7566,0.7587,0.7591,0.7583,0.7585,0.7609,0.7611,0.7613,0.7606,0.7625,0.7625,0.7626,0.7619,0.7618,0.7618,0,0,0,0,0,0,0.7513,0.7516,0.7542,0.7533,0.7537,0.7558,0.7563,0.7566,0.7571,0.7591,0.7595,0.7583,0.761,0.7612,0.7614,0.7608,0.7626,0.7626,0.762,0.7619,0.7618,0.7592,0,0,0,0,0,0,0.7512,0.7515,0.7513,0.7532,0.7537,0.7543,0.7562,0.7567,0.7572,0.7575,0.7592,0.7596,0.761,0.7613,0.7615,0.7609,0.7627,0.762,0.7619,0.7618,0.7593,0.759,0.7588,0,0,0,0,0,0.751,0.7504,0.7512,0.7515,0.7535,0.7543,0.7545,0.7562,0.7571,0.7569,0.7582,0.7595,0.7608,0.7613,0.7615,0.7609,0.7621,0.762,0.7618,0.7595,0.7591,0.7588,0,0,0,0,0,0,0.7482,0.7507,0.7517,0.7516,0.7527,0.7548,0.7545,0.7558,0.7566,0.7568,0.7588,0.7592,0.7592,0.7601,0.7606,0.7603,0.7616,0.7615,0.7598,0.7594,0.7591,0.7589,0.7627,0,0,0,0,0,0.7476,0.7481,0.7502,0.7499,0.7505,0.7524,0.7528,0.754,0.7552,0.7557,0.757,0.7581,0.7588,0.7591,0.7598,0.7595,0.7599,0.7592,0.7589,0.7586,0.7585,0.7584,0.7581,0.7614,0.7614,0.7614,0,0,0.7463,0.7477,0.7479,0.7494,0.7504,0.7509,0.7528,0.7531,0.7535,0.7557,0.7561,0.757,0.7584,0.7583,0.7584,0.7591,0.7577,0.7585,0.7583,0.7583,0.7583,0.758,0.7577,0.7613,0.7613,0.7613,0,0,0.7441,0.7453,0.7452,0.7462,0.7477,0.749,0.749,0.7508,0.7516,0.752,0.7537,0.7541,0.7552,0.7561,0.7567,0.7549,0.7562,0.7551,0.7535,0.7534,0.7531,0.7529,0.7523,0.7521,0.755,0.7549,0.7549,0,0.7423,0.7431,0.745,0.7453,0.7459,0.7481,0.748,0.7488,0.7505,0.7508,0.7516,0.753,0.7541,0.7543,0.7539,0.7543,0.7543,0.7549,0.753,0.7528,0.7527,0.7521,0.7519,0.7548,0.7548,0.7548,0.7549,0,0.7408,0.7413,0.7411,0.7427,0.7433,0.7434,0.7453,0.7456,0.7468,0.748,0.7483,0.7497,0.7507,0.7509,0.752,0.7512,0.7516,0.7527,0.754,0.7522,0.7517,0.7515,0.7546,0.7547,0.7547,0.7547,0,0,0.7369,0.7396,0.7395,0.7403,0.7421,0.7425,0.7427,0.7438,0.7441,0.7451,0.7454,0.7462,0.7473,0.7479,0.7492,0.7491,0.7476,0.7502,0.7502,0.7497,0.7469,0.746,0.7458,0.7485,0.7484,0.7484,0.7467,0,0.7351,0.7357,0.7374,0.7374,0.7379,0.74,0.7401,0.7413,0.7424,0.743,0.7442,0.7448,0.7461,0.7465,0.7465,0.7478,0.7471,0.7479,0.7487,0.7487,0.7483,0.7455,0.7446,0.743,0.7466,0.7465,0.7465,0,0.7331,0.7341,0.7341,0.736,0.7363,0.7364,0.7376,0.7381,0.7394,0.7402,0.741,0.7424,0.7427,0.744,0.7444,0.7449,0.7453,0.746,0.746,0.7461,0.7475,0.7455,0.7425,0.7423,0.7462,0.7462,0.7463,0,0.7303,0.7316,0.7319,0.7324,0.7346,0.7347,0.7356,0.737,0.7375,0.7385,0.7388,0.7398,0.7403,0.741,0.7426,0.7434,0.7429,0.7443,0.7436,0.7435,0.7433,0.7433,0.7403,0.7436,0.7436,0.7436,0.7436,0,0.7281,0.728,0.7306,0.7308,0.7308,0.7328,0.7327,0.7338,0.735,0.7354,0.7372,0.7375,0.7396,0.7401,0.7414,0.7416,0.7418,0.7424,0.7428,0.7423,0.7422,0.7426,0.7427,0.7435,0.7436,0.7436,0.7436,0,0.7249,0.7267,0.7271,0.7291,0.7296,0.7296,0.7313,0.7315,0.7327,0.7332,0.7334,0.7353,0.7361,0.7378,0.7389,0.7398,0.7396,0.7402,0.7392,0.7394,0.7386,0.7386,0.7357,0.7354,0.7388,0.7388,0.7388,0,0.7234,0.7235,0.7255,0.7259,0.7268,0.7274,0.728,0.7299,0.7304,0.7319,0.7319,0.7328,0.7336,0.7347,0.7362,0.737,0.7377,0.7366,0.7378,0.7373,0.7377,0.7376,0.7377,0.7363,0.7363,0.7362,0.7362,0,0.7205,0.7214,0.7222,0.7233,0.724,0.7249,0.7259,0.7261,0.7283,0.7288,0.7296,0.7302,0.7314,0.7322,0.7334,0.7343,0.7356,0.7358,0.7357,0.7352,0.7346,0.7349,0.7384,0.7359,0.7359,0.7359,0.7359,0.736,0.7182,0.7183,0.7198,0.7206,0.7216,0.7226,0.7229,0.7242,0.7249,0.7261,0.7271,0.7278,0.7291,0.7308,0.7316,0.7321,0.7328,0.7326,0.7326,0.7325,0.7323,0.7345,0.7323,0.7324,0.7324,0.7324,0.7324,0,0.7154,0.7165,0.7172,0.7187,0.7193,0.7206,0.7218,0.7222,0.7228,0.7239,0.7247,0.7256,0.7264,0.728,0.729,0.7291,0.7297,0.7293,0.7293,0.7294,0.7316,0.7316,0.7287,0.7287,0.7287,0.7287,0.7287,0.7287,0.7141,0.7144,0.7154,0.7162,0.7173,0.718,0.7186,0.7195,0.7204,0.7213,0.722,0.7231,0.7244,0.7255,0.7263,0.7267,0.727,0.7263,0.7269,0.7289,0.7293,0.7296,0.7296,0.7264,0.7264,0.7247,0.7247,0.7247]},{"header":{"parameterUnit":"m.s-1","parameterCategory":1,"la1":30.2991,"la2":30.254,"lo1":-89.0895,"lo2":-89.0444,"dy":0.0017,"dx":0.0017,"nx":28,"ny":28,"refTime":"2023-10-08T21:00:00:Z","depth":0,"parameterNumber":3,"parameterNumberName":"V-component_of_WINDS"},"data":[0,0,0,0,0,0,0,0,0,0,0,0,0,0,0,0,0,0,0,0,0,0,0,0,0,0,0,0,0,0,0,0,0,0,0,0,0,0,0,0,0,0,0,0,0,0,0,0,0,0,0,0,0,0,0,0,0,0,-0.4536,-0.4537,0,-0.4572,-0.4573,-0.4573,-0.4569,-0.4568,-0.4568,-0.4567,-0.4605,-0.4607,-0.4608,0,0,0,0,0,0,0,0,0,0,0,0,0,-0.4465,-0.4467,-0.4536,-0.4537,-0.4537,-0.4572,-0.4573,-0.4573,-0.4569,-0.4568,-0.4568,-0.4567,-0.4605,-0.4607,-0.4609,0,0,0,0,0,0,0,0,0,0,0,0,0,-0.4498,-0.4467,-0.4536,-0.4539,-0.454,-0.4572,-0.4573,-0.4573,-0.4569,-0.4568,-0.4567,-0.4567,-0.4604,-0.4607,-0.4609,-0.4641,0,0,-0.4616,-0.4617,0,0,0,0,0,0,0,0,-0.4496,-0.4501,-0.4538,-0.4539,-0.454,-0.4565,-0.4562,-0.4596,-0.4569,-0.4558,-0.4567,-0.4566,-0.4593,-0.4596,-0.4605,-0.4643,-0.4644,-0.4616,-0.4618,-0.4619,-0.4619,0,0,0,0,0,0,0,-0.4494,-0.4499,-0.4551,-0.4539,-0.454,-0.4539,-0.4543,-0.4568,-0.458,-0.4559,-0.4559,-0.4563,-0.4593,-0.4603,-0.4606,-0.4645,-0.4616,-0.4618,-0.462,-0.4621,-0.471,-0.4711,0,0,0,0,0,0,-0.4491,-0.4497,-0.455,-0.4552,-0.4516,-0.4541,-0.4546,-0.4558,-0.458,-0.4582,-0.4564,-0.4563,-0.4599,-0.4603,-0.4607,-0.4646,-0.4619,-0.4621,-0.4622,-0.471,-0.4711,-0.4712,0,0,0,0,0,0,-0.4489,-0.4496,-0.4548,-0.4525,-0.4531,-0.4543,-0.4558,-0.4559,-0.4569,-0.4583,-0.4585,-0.4571,-0.4598,-0.4604,-0.4632,-0.4647,-0.4622,-0.4624,-0.4708,-0.471,-0.4711,-0.4723,0,0,0,0,0,0,-0.4487,-0.4495,-0.4507,-0.4525,-0.4532,-0.4572,-0.4559,-0.4561,-0.4572,-0.4571,-0.4591,-0.4593,-0.4598,-0.4629,-0.4635,-0.465,-0.4626,-0.4707,-0.4709,-0.4711,-0.4722,-0.4725,-0.4728,0,0,0,0,0,-0.4485,-0.4509,-0.4508,-0.4514,-0.4548,-0.4573,-0.4578,-0.4583,-0.4574,-0.4586,-0.4595,-0.4593,-0.4644,-0.4632,-0.4638,-0.4654,-0.4706,-0.4708,-0.4711,-0.472,-0.4724,-0.4728,0,0,0,0,0,0,-0.4493,-0.4512,-0.451,-0.4541,-0.4555,-0.4572,-0.4588,-0.4587,-0.4605,-0.4603,-0.4609,-0.4613,-0.4642,-0.4651,-0.4637,-0.4686,-0.4674,-0.4678,-0.4679,-0.4683,-0.4686,-0.4683,-0.4628,0,0,0,0,0,-0.4499,-0.4518,-0.4533,-0.4559,-0.4566,-0.4576,-0.4587,-0.459,-0.4605,-0.4611,-0.4623,-0.4639,-0.4658,-0.4671,-0.469,-0.4723,-0.4727,-0.4737,-0.474,-0.4743,-0.4746,-0.4764,-0.4768,-0.4719,-0.4719,-0.4719,0,0,-0.451,-0.4522,-0.4534,-0.4561,-0.4572,-0.4592,-0.4581,-0.4602,-0.4617,-0.4615,-0.4642,-0.4651,-0.4669,-0.47,-0.4714,-0.4708,-0.476,-0.4745,-0.4747,-0.4749,-0.4766,-0.4771,-0.4775,-0.4721,-0.472,-0.472,0,0,-0.4541,-0.4552,-0.4575,-0.4587,-0.4604,-0.461,-0.4616,-0.4633,-0.4639,-0.4667,-0.4665,-0.4683,-0.4717,-0.473,-0.4741,-0.4776,-0.4774,-0.4783,-0.4799,-0.4816,-0.482,-0.4823,-0.4836,-0.484,-0.4786,-0.4786,-0.4786,0,-0.4553,-0.4582,-0.4587,-0.4608,-0.462,-0.4618,-0.4641,-0.4653,-0.4676,-0.4684,-0.4677,-0.472,-0.4732,-0.4765,-0.4774,-0.4783,-0.479,-0.478,-0.4819,-0.4822,-0.4826,-0.4838,-0.4843,-0.4786,-0.4786,-0.4786,-0.4786,0,-0.4596,-0.4617,-0.4633,-0.4655,-0.4668,-0.4691,-0.4699,-0.4712,-0.4713,-0.472,-0.4749,-0.4763,-0.4785,-0.4793,-0.4795,-0.4827,-0.4823,-0.4818,-0.4805,-0.4831,-0.4843,-0.4847,-0.4788,-0.4787,-0.4787,-0.4787,0,0,-0.4633,-0.4657,-0.4663,-0.4673,-0.4692,-0.4708,-0.473,-0.4751,-0.4763,-0.4779,-0.4798,-0.4826,-0.4822,-0.4834,-0.4837,-0.4852,-0.488,-0.4845,-0.4846,-0.4851,-0.4916,-0.492,-0.4925,-0.4879,-0.4879,-0.488,-0.4914,0,-0.4666,-0.4705,-0.4709,-0.4744,-0.4763,-0.4762,-0.4781,-0.4795,-0.4803,-0.482,-0.4829,-0.4849,-0.4841,-0.4848,-0.4864,-0.4873,-0.4893,-0.4871,-0.4896,-0.4897,-0.4892,-0.4931,-0.4935,-0.4967,-0.4919,-0.492,-0.492,0,-0.4709,-0.4726,-0.4762,-0.4779,-0.4787,-0.4804,-0.4824,-0.4841,-0.4857,-0.4861,-0.4875,-0.4876,-0.4899,-0.4887,-0.4919,-0.4904,-0.4915,-0.4921,-0.4922,-0.4925,-0.491,-0.4934,-0.4977,-0.4982,-0.4927,-0.4927,-0.4926,0,-0.4732,-0.4764,-0.479,-0.4798,-0.4818,-0.4831,-0.484,-0.4855,-0.4867,-0.4884,-0.4892,-0.4912,-0.4923,-0.4939,-0.4946,-0.4935,-0.4978,-0.4965,-0.4982,-0.4982,-0.4991,-0.499,-0.5035,-0.4998,-0.4998,-0.4998,-0.4998,0,-0.4768,-0.479,-0.48,-0.4816,-0.4842,-0.4847,-0.4872,-0.488,-0.4894,-0.4912,-0.4912,-0.4929,-0.4937,-0.4955,-0.496,-0.4987,-0.4992,-0.4996,-0.4997,-0.4996,-0.4995,-0.5003,-0.5001,-0.4999,-0.4999,-0.4999,-0.4999,0,-0.4798,-0.4806,-0.4834,-0.485,-0.4855,-0.4873,-0.4887,-0.4903,-0.491,-0.4933,-0.4938,-0.495,-0.4971,-0.4979,-0.5006,-0.5009,-0.5039,-0.5039,-0.5034,-0.5034,-0.505,-0.5049,-0.5102,-0.5109,-0.5067,-0.5068,-0.5068,0,-0.482,-0.4837,-0.4856,-0.4867,-0.4877,-0.4896,-0.4908,-0.4914,-0.4927,-0.4946,-0.496,-0.4981,-0.4998,-0.5033,-0.5044,-0.5064,-0.5064,-0.5081,-0.5067,-0.5065,-0.5064,-0.5063,-0.5064,-0.5084,-0.5084,-0.5084,-0.5085,0,-0.4859,-0.4862,-0.4879,-0.4898,-0.4913,-0.4928,-0.4943,-0.4953,-0.4961,-0.4976,-0.4997,-0.5011,-0.5037,-0.5059,-0.5079,-0.5089,-0.5088,-0.5089,-0.5094,-0.5093,-0.5089,-0.5091,-0.5041,-0.5088,-0.5087,-0.5087,-0.5087,-0.5087,-0.4886,-0.4901,-0.4916,-0.4935,-0.4947,-0.4961,-0.4976,-0.4985,-0.5003,-0.5025,-0.5028,-0.5051,-0.5067,-0.5095,-0.5105,-0.5124,-0.5119,-0.5126,-0.5128,-0.513,-0.5131,-0.5086,-0.5128,-0.5127,-0.5127,-0.5127,-0.5127,0,-0.4924,-0.4934,-0.4952,-0.4972,-0.4988,-0.4985,-0.5002,-0.5015,-0.5035,-0.505,-0.5067,-0.5092,-0.5112,-0.5125,-0.5145,-0.5158,-0.5158,-0.5163,-0.5162,-0.5164,-0.5134,-0.5127,-0.5162,-0.5162,-0.5162,-0.5162,-0.5162,-0.5162,-0.4946,-0.4971,-0.4976,-0.5007,-0.5017,-0.5039,-0.5049,-0.5062,-0.5073,-0.5101,-0.5118,-0.5126,-0.514,-0.5161,-0.518,-0.5183,-0.5191,-0.5196,-0.5199,-0.517,-0.5167,-0.5163,-0.5157,-0.5198,-0.5198,-0.5228,-0.5228,-0.5229]}]]